[ hide orbit diagram ]
For accurate long-term ephemerides, please instead use our Horizons system.This orbit viewer was implemented using two-body methods, and hence should not be used for determining accurate long-term trajectories (over several years or decades) or planetary encounter circumstances.
Orbital Elements at Epoch 2459000.5 (2020-May-31.0) TDB
Reference: JPL 107 (heliocentric ecliptic J2000)
Element | Value | Uncertainty (1-sigma) | Units |
e | .09878618651889248 | 3.3444e-08 | |
a | 2.774584270180465 | 1.0204e-08 | au |
q | 2.500493670954033 | 9.3961e-08 | au |
i | 6.00287073877307 | 3.6495e-06 | deg |
node | 73.74262439651022 | 3.5712e-05 | deg |
peri | 196.80798223676 | 4.1261e-05 | deg |
M | 265.8179964435093 | 2.2909e-05 | deg |
tp | 2459442.132200019398 (2021-Aug-15.63220002) | 0.00010845 | TDB |
period | 1688.088870519961 4.62 | 9.3124e-06 2.55e-08 | d yr |
n | .2132589144368411 | 1.1765e-09 | deg/d |
Q | 3.048674869406898 | 1.1212e-08 | au |
|
| | Orbit Determination Parameters
Additional Information
|
[ show covariance matrix ]
Physical Parameter Table
Parameter |
Symbol |
Value |
Units |
Sigma |
Reference |
Notes |
absolute magnitude |
H |
10.2 |
|
n/a |
MPO337242 |
|
diameter |
diameter |
55.998 |
km |
0.637 |
urn:nasa:pds:neowise_diameters_albedos::2.0[mainbelt] (http://adsabs.harvard.edu/abs/2012ApJ...759L...8M) |
|
rotation period |
rot_per |
7.648 |
h |
n/a |
LCDB (Rev. 2020-October); Warner et al., 2009 |
Published Reference List: [Behrend, R. (2004) Observatoire de Geneve web site, http://obswww.unige.ch/~behrend/page_cou.html] [Behrend, R. (2006) Observatoire de Geneve web site, http://obswww.unige.ch/~behrend/page_cou.html] |
geometric albedo |
albedo |
0.051 |
|
0.008 |
urn:nasa:pds:neowise_diameters_albedos::2.0[mainbelt] (http://adsabs.harvard.edu/abs/2012ApJ...759L...8M) |
|
Tholen spectral type |
spec_T |
DU |
|
n/a |
EAR-A-5-DDR-TAXONOMY-V4.0 |
used 1 color indices |
SMASSII spectral type |
spec_B |
D |
|
n/a |
EAR-A-5-DDR-TAXONOMY-V4.0 |
based on a high-resolution spectrum by Xu et al. (1995) or Bus and Binzel (2002) |
|
267 Tirza (A887 KB) Discovered 1887-May-27 by Charlois, A. at Nice |
Reference: DISCOVERY.DB | Last Updated: 2003-08-29 |
|
Alternate Designations
A887 KB = 1965 GC = A922 AA |
|
|